Time,TemperatureF,DewpointF,PressureIn,WindDirection,WindDirectionDegrees,WindSpeedMPH,WindSpeedGustMPH,Humidity,HourlyPrecipIn,Conditions,Clouds,dailyrainin,SoftwareType,DateUTC
2013-04-02 00:02:00,31.0,23.0,30.06,NW,315,0.0,0.0,72,0.00,,,-99.99,Weather View 32 v60,2013-04-02 04:02:00,
2013-04-02 00:09:00,31.0,23.0,30.06,NNW,337,0.0,0.0,72,0.00,,,-99.99,Weather View 32 v60,2013-04-02 04:09:00,
2013-04-02 00:19:00,31.0,23.0,30.06,NNW,337,0.0,0.0,72,0.00,,,-99.99,Weather View 32 v60,2013-04-02 04:19:00,
2013-04-02 00:24:00,31.0,23.4,30.07,NNW,337,0.0,0.0,73,0.00,,,-99.99,Weather View 32 v60,2013-04-02 04:24:00,
2013-04-02 00:29:00,31.0,23.4,30.07,NNW,337,0.0,0.0,73,0.00,,,-99.99,Weather View 32 v60,2013-04-02 04:29:00,
2013-04-02 00:34:00,31.0,23.4,30.06,NNW,337,0.0,0.0,73,0.00,,,-99.99,Weather View 32 v60,2013-04-02 04:34:00,
2013-04-02 00:39:00,31.0,23.4,30.06,NNW,337,0.0,0.0,73,0.00,,,-99.99,Weather View 32 v60,2013-04-02 04:39:00,
2013-04-02 00:49:00,31.0,23.7,30.06,NNW,337,0.0,0.0,74,0.00,,,-99.99,Weather View 32 v60,2013-04-02 04:49:00,
2013-04-02 00:59:00,31.0,23.7,30.06,NNW,337,0.0,0.0,74,0.00,,,-99.99,Weather View 32 v60,2013-04-02 04:59:00,
2013-04-02 01:04:00,31.0,24.0,30.07,NNW,337,0.0,0.0,75,0.00,,,-99.99,Weather View 32 v60,2013-04-02 05:04:00,
2013-04-02 01:09:00,31.0,24.0,30.07,NNW,337,0.0,0.0,75,0.00,,,-99.99,Weather View 32 v60,2013-04-02 05:09:00,
2013-04-02 01:19:00,30.0,22.7,30.07,NNW,337,0.0,0.0,74,0.00,,,-99.99,Weather View 32 v60,2013-04-02 05:19:00,
2013-04-02 01:24:00,30.0,22.7,30.07,NNW,337,0.0,0.0,74,0.00,,,-99.99,Weather View 32 v60,2013-04-02 05:24:00,
2013-04-02 01:34:00,30.0,23.0,30.06,NNW,337,0.0,0.0,75,0.00,,,-99.99,Weather View 32 v60,2013-04-02 05:34:00,
2013-04-02 01:39:00,30.0,23.0,30.06,NNW,337,0.0,0.0,75,0.00,,,-99.99,Weather View 32 v60,2013-04-02 05:39:00,
2013-04-02 01:49:00,29.0,22.1,30.06,NNW,337,0.0,0.0,75,0.00,,,-99.99,Weather View 32 v60,2013-04-02 05:49:00,
2013-04-02 01:54:00,29.0,22.1,30.07,NNW,337,0.0,0.0,75,0.00,,,-99.99,Weather View 32 v60,2013-04-02 05:54:00,
2013-04-02 02:03:00,29.0,22.4,30.07,WNW,292,0.0,0.0,76,0.00,,,-99.99,Weather View 32 v60,2013-04-02 06:03:00,
2013-04-02 02:09:00,29.0,22.1,30.08,NNW,337,0.0,0.0,75,0.00,,,-99.99,Weather View 32 v60,2013-04-02 06:09:00,
2013-04-02 02:14:00,30.0,22.7,30.08,NW,315,0.0,0.0,74,0.00,,,-99.99,Weather View 32 v60,2013-04-02 06:14:00,
2013-04-02 02:24:00,29.0,21.4,30.08,NNW,337,0.0,0.0,73,0.00,,,-99.99,Weather View 32 v60,2013-04-02 06:24:00,
2013-04-02 02:29:00,29.0,21.4,30.08,NNW,337,0.0,0.0,73,0.00,,,-99.99,Weather View 32 v60,2013-04-02 06:29:00,
2013-04-02 02:39:00,29.0,22.1,30.08,NW,315,0.0,0.0,75,0.00,,,-99.99,Weather View 32 v60,2013-04-02 06:39:00,
2013-04-02 02:44:00,29.0,21.8,30.08,NNW,337,0.0,0.0,74,0.00,,,-99.99,Weather View 32 v60,2013-04-02 06:44:00,
2013-04-02 02:49:00,29.0,21.4,30.08,West,270,0.0,0.0,73,0.00,,,-99.99,Weather View 32 v60,2013-04-02 06:49:00,
2013-04-02 02:59:00,29.0,21.4,30.09,West,270,0.0,0.0,73,0.00,,,-99.99,Weather View 32 v60,2013-04-02 06:59:00,
2013-04-02 03:09:00,28.0,21.1,30.09,WNW,292,0.0,2.0,75,0.00,,,-99.99,Weather View 32 v60,2013-04-02 07:09:00,
2013-04-02 03:19:00,28.0,20.8,30.09,West,270,0.0,4.0,74,0.00,,,-99.99,Weather View 32 v60,2013-04-02 07:19:00,
2013-04-02 03:29:00,28.0,21.1,30.09,NW,315,0.0,4.0,75,0.00,,,-99.99,Weather View 32 v60,2013-04-02 07:29:00,
2013-04-02 03:34:00,28.0,20.8,30.09,WNW,292,0.0,4.0,74,0.00,,,-99.99,Weather View 32 v60,2013-04-02 07:34:00,
2013-04-02 03:39:00,28.0,21.1,30.09,WNW,292,0.0,4.0,75,0.00,,,-99.99,Weather View 32 v60,2013-04-02 07:39:00,
2013-04-02 03:49:00,27.0,20.4,30.09,WNW,292,0.0,4.0,76,0.00,,,-99.99,Weather View 32 v60,2013-04-02 07:49:00,
2013-04-02 03:59:00,27.0,20.4,30.09,NW,315,0.0,4.0,76,0.00,,,-99.99,Weather View 32 v60,2013-04-02 07:59:00,
2013-04-02 04:09:00,27.0,21.1,30.09,WSW,247,0.0,4.0,78,0.00,,,-99.99,Weather View 32 v60,2013-04-02 08:09:00,
2013-04-02 04:19:00,27.0,20.8,30.09,West,270,0.0,3.0,77,0.00,,,-99.99,Weather View 32 v60,2013-04-02 08:19:00,
2013-04-02 04:29:00,27.0,20.8,30.09,West,270,0.0,0.0,77,0.00,,,-99.99,Weather View 32 v60,2013-04-02 08:29:00,
2013-04-02 04:39:00,27.0,20.8,30.10,West,270,0.0,0.0,77,0.00,,,-99.99,Weather View 32 v60,2013-04-02 08:39:00,
2013-04-02 04:49:00,26.0,20.4,30.10,NW,315,0.0,0.0,79,0.00,,,-99.99,Weather View 32 v60,2013-04-02 08:49:00,
2013-04-02 04:54:00,26.0,20.7,30.11,NW,315,0.0,0.0,80,0.00,,,-99.99,Weather View 32 v60,2013-04-02 08:54:00,
2013-04-02 05:04:00,26.0,20.4,30.11,West,270,0.0,0.0,79,0.00,,,-99.99,Weather View 32 v60,2013-04-02 09:04:00,
2013-04-02 05:14:00,26.0,20.7,30.12,WNW,292,0.0,0.0,80,0.00,,,-99.99,Weather View 32 v60,2013-04-02 09:14:00,
2013-04-02 05:19:00,26.0,20.7,30.12,WNW,292,0.0,0.0,80,0.00,,,-99.99,Weather View 32 v60,2013-04-02 09:19:00,
2013-04-02 05:24:00,26.0,20.4,30.13,WNW,292,0.0,0.0,79,0.00,,,-99.99,Weather View 32 v60,2013-04-02 09:24:00,
2013-04-02 05:34:00,25.0,19.7,30.13,WNW,292,0.0,0.0,80,0.00,,,-99.99,Weather View 32 v60,2013-04-02 09:34:00,
2013-04-02 05:39:00,25.0,20.0,30.13,WNW,292,0.0,0.0,81,0.00,,,-99.99,Weather View 32 v60,2013-04-02 09:39:00,
2013-04-02 05:49:00,25.0,20.6,30.12,WNW,292,0.0,0.0,83,0.00,,,-99.99,Weather View 32 v60,2013-04-02 09:49:00,
2013-04-02 05:59:00,25.0,20.9,30.13,WNW,292,0.0,0.0,84,0.00,,,-99.99,Weather View 32 v60,2013-04-02 09:59:00,
2013-04-02 06:04:00,25.0,20.6,30.13,WNW,292,0.0,0.0,83,0.00,,,-99.99,Weather View 32 v60,2013-04-02 10:04:00,
2013-04-02 06:09:00,25.0,20.6,30.13,WNW,292,0.0,0.0,83,0.00,,,-99.99,Weather View 32 v60,2013-04-02 10:09:00,
2013-04-02 06:19:00,25.0,21.4,30.14,WNW,292,0.0,0.0,86,0.00,,,-99.99,Weather View 32 v60,2013-04-02 10:19:00,
2013-04-02 06:24:00,25.0,21.1,30.15,WNW,292,0.0,0.0,85,0.00,,,-99.99,Weather View 32 v60,2013-04-02 10:24:00,
2013-04-02 06:29:00,25.0,21.4,30.15,WNW,292,0.0,0.0,86,0.00,,,-99.99,Weather View 32 v60,2013-04-02 10:29:00,
2013-04-02 06:39:00,24.0,20.4,30.15,WNW,292,0.0,0.0,86,0.00,,,-99.99,Weather View 32 v60,2013-04-02 10:39:00,
2013-04-02 06:44:00,24.0,20.4,30.16,WNW,292,0.0,0.0,86,0.00,,,-99.99,Weather View 32 v60,2013-04-02 10:44:00,
2013-04-02 06:49:00,23.0,20.2,30.16,WNW,292,0.0,0.0,89,0.00,,,-99.99,Weather View 32 v60,2013-04-02 10:49:00,
2013-04-02 06:59:00,23.0,21.5,30.16,WNW,292,0.0,0.0,94,0.00,,,-99.99,Weather View 32 v60,2013-04-02 10:59:00,
2013-04-02 07:04:00,23.0,21.8,30.16,WNW,292,0.0,0.0,95,0.00,,,-99.99,Weather View 32 v60,2013-04-02 11:04:00,
2013-04-02 07:09:00,23.0,21.8,30.16,WNW,292,0.0,0.0,95,0.00,,,-99.99,Weather View 32 v60,2013-04-02 11:09:00,
2013-04-02 07:19:00,23.0,21.8,30.16,WNW,292,0.0,0.0,95,0.00,,,-99.99,Weather View 32 v60,2013-04-02 11:19:00,
2013-04-02 07:29:00,23.0,22.3,30.16,WNW,292,0.0,0.0,97,0.00,,,-99.99,Weather View 32 v60,2013-04-02 11:29:00,
2013-04-02 07:34:00,23.0,22.3,30.16,WNW,292,0.0,0.0,97,0.00,,,-99.99,Weather View 32 v60,2013-04-02 11:34:00,
2013-04-02 07:44:00,24.0,22.8,30.17,WNW,292,0.0,0.0,95,0.00,,,-99.99,Weather View 32 v60,2013-04-02 11:44:00,
2013-04-02 07:49:00,25.0,23.5,30.17,WNW,292,0.0,0.0,94,0.00,,,-99.99,Weather View 32 v60,2013-04-02 11:49:00,
2013-04-02 07:59:00,27.0,24.5,30.17,WNW,292,0.0,0.0,90,0.00,,,-99.99,Weather View 32 v60,2013-04-02 11:59:00,
2013-04-02 08:06:00,28.0,24.9,30.16,WNW,292,0.0,0.0,88,0.00,,,-99.99,Weather View 32 v60,2013-04-02 12:06:00,
2013-04-02 08:14:00,31.0,26.1,30.15,WNW,292,0.0,0.0,82,0.00,,,-99.99,Weather View 32 v60,2013-04-02 12:14:00,
2013-04-02 08:24:00,33.0,25.9,30.14,SW,225,0.0,0.0,75,0.00,,,-99.99,Weather View 32 v60,2013-04-02 12:24:00,
2013-04-02 08:29:00,34.0,26.6,30.14,North,360,0.0,0.0,74,0.00,,,-99.99,Weather View 32 v60,2013-04-02 12:29:00,
2013-04-02 08:39:00,37.0,29.8,30.14,NW,315,0.0,0.0,75,0.00,,,-99.99,Weather View 32 v60,2013-04-02 12:39:00,
2013-04-02 08:44:00,37.0,28.8,30.14,NW,315,0.0,0.0,72,0.00,,,-99.99,Weather View 32 v60,2013-04-02 12:44:00,
2013-04-02 08:49:00,39.0,28.2,30.14,North,360,0.0,0.0,65,0.00,,,-99.99,Weather View 32 v60,2013-04-02 12:49:00,
2013-04-02 08:59:00,40.0,28.4,30.14,NW,315,0.0,0.0,63,0.00,,,-99.99,Weather View 32 v60,2013-04-02 12:59:00,
2013-04-02 09:07:00,40.0,26.4,30.14,NNE,22,0.0,0.0,58,0.00,,,-99.99,Weather View 32 v60,2013-04-02 13:07:00,
2013-04-02 09:14:00,40.0,23.8,30.15,NW,315,3.0,6.0,52,0.00,,,-99.99,Weather View 32 v60,2013-04-02 13:14:00,
2013-04-02 09:19:00,40.0,25.1,30.15,NNE,22,4.0,6.0,55,0.00,,,-99.99,Weather View 32 v60,2013-04-02 13:19:00,
2013-04-02 09:29:00,39.0,25.0,30.15,NE,45,3.0,6.0,57,0.00,,,-99.99,Weather View 32 v60,2013-04-02 13:29:00,
2013-04-02 09:39:00,40.0,23.3,30.14,SE,135,0.0,6.0,51,0.00,,,-99.99,Weather View 32 v60,2013-04-02 13:39:00,
2013-04-02 09:49:00,42.0,25.2,30.14,NE,45,3.0,6.0,51,0.00,,,-99.99,Weather View 32 v60,2013-04-02 13:49:00,
2013-04-02 09:59:00,43.0,26.1,30.14,SW,225,4.0,6.0,51,0.00,,,-99.99,Weather View 32 v60,2013-04-02 13:59:00,
2013-04-02 10:04:00,42.0,25.2,30.14,NW,315,0.0,6.0,51,0.00,,,-99.99,Weather View 32 v60,2013-04-02 14:04:00,
2013-04-02 10:14:00,42.0,24.7,30.13,North,360,1.0,7.0,50,0.00,,,-99.99,Weather View 32 v60,2013-04-02 14:14:00,
2013-04-02 10:19:00,42.0,23.2,30.13,NE,45,0.0,7.0,47,0.00,,,-99.99,Weather View 32 v60,2013-04-02 14:19:00,
2013-04-02 10:29:00,44.0,25.5,30.14,WNW,292,0.0,7.0,48,0.00,,,-99.99,Weather View 32 v60,2013-04-02 14:29:00,
2013-04-02 10:39:00,44.0,25.0,30.14,NNE,22,6.0,10.0,47,0.00,,,-99.99,Weather View 32 v60,2013-04-02 14:39:00,
2013-04-02 10:49:00,43.0,19.7,30.13,ESE,112,0.0,10.0,39,0.00,,,-99.99,Weather View 32 v60,2013-04-02 14:49:00,
2013-04-02 10:59:00,43.0,21.4,30.14,NE,45,3.0,10.0,42,0.00,,,-99.99,Weather View 32 v60,2013-04-02 14:59:00,
2013-04-02 11:08:00,43.0,22.0,30.14,SW,225,5.0,10.0,43,0.00,,,-99.99,Weather View 32 v60,2013-04-02 15:08:00,
2013-04-02 11:14:00,44.0,24.0,30.14,NE,45,4.0,10.0,45,0.00,,,-99.99,Weather View 32 v60,2013-04-02 15:14:00,
2013-04-02 11:19:00,43.0,19.7,30.14,North,360,0.0,10.0,39,0.00,,,-99.99,Weather View 32 v60,2013-04-02 15:19:00,
2013-04-02 11:29:00,43.0,21.4,30.13,SE,135,0.0,10.0,42,0.00,,,-99.99,Weather View 32 v60,2013-04-02 15:29:00,
2013-04-02 11:34:00,44.0,24.0,30.13,NE,45,4.0,10.0,45,0.00,,,-99.99,Weather View 32 v60,2013-04-02 15:34:00,
2013-04-02 11:44:00,44.0,24.0,30.13,NNE,22,0.0,8.0,45,0.00,,,-99.99,Weather View 32 v60,2013-04-02 15:44:00,
2013-04-02 11:49:00,45.0,22.7,30.13,NW,315,0.0,8.0,41,0.00,,,-99.99,Weather View 32 v60,2013-04-02 15:49:00,
2013-04-02 11:54:00,46.0,21.8,30.13,West,270,0.0,8.0,38,0.00,,,-99.99,Weather View 32 v60,2013-04-02 15:54:00,
2013-04-02 12:04:00,46.0,21.1,30.14,WSW,247,0.0,8.0,37,0.00,,,-99.99,Weather View 32 v60,2013-04-02 16:04:00,
2013-04-02 12:09:00,46.0,21.8,30.14,West,270,4.0,9.0,38,0.00,,,-99.99,Weather View 32 v60,2013-04-02 16:09:00,
2013-04-02 12:14:00,44.0,21.8,30.14,WSW,247,0.0,9.0,41,0.00,,,-99.99,Weather View 32 v60,2013-04-02 16:14:00,
2013-04-02 12:19:00,44.0,21.2,30.14,North,360,0.0,9.0,40,0.00,,,-99.99,Weather View 32 v60,2013-04-02 16:19:00,
2013-04-02 12:29:00,44.0,17.4,30.13,South,180,5.0,9.0,34,0.00,,,-99.99,Weather View 32 v60,2013-04-02 16:29:00,
2013-04-02 12:39:00,45.0,21.5,30.12,North,360,0.0,11.0,39,0.00,,,-99.99,Weather View 32 v60,2013-04-02 16:39:00,
2013-04-02 12:49:00,46.0,19.8,30.12,WSW,247,4.0,11.0,35,0.00,,,-99.99,Weather View 32 v60,2013-04-02 16:49:00,
2013-04-02 12:59:00,47.0,23.3,30.12,West,270,5.0,11.0,39,0.00,,,-99.99,Weather View 32 v60,2013-04-02 16:59:00,
2013-04-02 13:04:00,47.0,22.0,30.12,WSW,247,4.0,11.0,37,0.00,,,-99.99,Weather View 32 v60,2013-04-02 17:04:00,
2013-04-02 13:09:00,47.0,21.4,30.12,West,270,3.0,11.0,36,0.00,,,-99.99,Weather View 32 v60,2013-04-02 17:09:00,
2013-04-02 13:19:00,46.0,20.5,30.12,WSW,247,4.0,11.0,36,0.00,,,-99.99,Weather View 32 v60,2013-04-02 17:19:00,
2013-04-02 13:29:00,45.0,19.0,30.11,SSW,202,7.0,11.0,35,0.00,,,-99.99,Weather View 32 v60,2013-04-02 17:29:00,
2013-04-02 13:39:00,46.0,21.8,30.11,NW,315,0.0,10.0,38,0.00,,,-99.99,Weather View 32 v60,2013-04-02 17:39:00,
2013-04-02 13:49:00,48.0,22.9,30.11,NW,315,0.0,10.0,37,0.00,,,-99.99,Weather View 32 v60,2013-04-02 17:49:00,
2013-04-02 13:54:00,48.0,23.6,30.10,NNE,22,0.0,10.0,38,0.00,,,-99.99,Weather View 32 v60,2013-04-02 17:54:00,
2013-04-02 14:04:00,49.0,23.2,30.10,NE,45,2.0,10.0,36,0.00,,,-99.99,Weather View 32 v60,2013-04-02 18:04:00,
2013-04-02 14:10:00,48.0,20.2,30.10,West,270,6.0,10.0,33,0.00,,,-99.99,Weather View 32 v60,2013-04-02 18:10:00,
2013-04-02 14:19:00,48.0,22.9,30.09,NW,315,0.0,10.0,37,0.00,,,-99.99,Weather View 32 v60,2013-04-02 18:19:00,
2013-04-02 14:29:00,48.0,22.9,30.09,NNW,337,0.0,10.0,37,0.00,,,-99.99,Weather View 32 v60,2013-04-02 18:29:00,
2013-04-02 14:34:00,48.0,22.3,30.09,WSW,247,4.0,10.0,36,0.00,,,-99.99,Weather View 32 v60,2013-04-02 18:34:00,
2013-04-02 14:44:00,49.0,23.8,30.08,NNE,22,3.0,11.0,37,0.00,,,-99.99,Weather View 32 v60,2013-04-02 18:44:00,
2013-04-02 14:49:00,49.0,21.1,30.08,West,270,2.0,11.0,33,0.00,,,-99.99,Weather View 32 v60,2013-04-02 18:49:00,
2013-04-02 14:59:00,47.0,22.7,30.08,West,270,6.0,11.0,38,0.00,,,-99.99,Weather View 32 v60,2013-04-02 18:59:00,
2013-04-02 15:04:00,46.0,21.8,30.07,West,270,0.0,11.0,38,0.00,,,-99.99,Weather View 32 v60,2013-04-02 19:04:00,
2013-04-02 15:10:00,47.0,24.5,30.07,NNE,22,0.0,11.0,41,0.00,,,-99.99,Weather View 32 v60,2013-04-02 19:10:00,
2013-04-02 15:19:00,48.0,24.8,30.07,NNW,337,0.0,11.0,40,0.00,,,-99.99,Weather View 32 v60,2013-04-02 19:19:00,
2013-04-02 15:29:00,51.0,23.6,30.07,SSE,157,0.0,11.0,34,0.00,,,-99.99,Weather View 32 v60,2013-04-02 19:29:00,
2013-04-02 15:34:00,51.0,24.3,30.06,NNW,337,3.0,11.0,35,0.00,,,-99.99,Weather View 32 v60,2013-04-02 19:34:00,
2013-04-02 15:49:00,49.0,21.8,30.06,WSW,247,1.0,11.0,34,0.00,,,-99.99,Weather View 32 v60,2013-04-02 19:49:00,
2013-04-02 15:54:00,48.0,19.5,30.05,SW,225,7.0,11.0,32,0.00,,,-99.99,Weather View 32 v60,2013-04-02 19:54:00,
2013-04-02 16:04:00,49.0,19.6,30.05,WSW,247,5.0,11.0,31,0.00,,,-99.99,Weather View 32 v60,2013-04-02 20:04:00,
2013-04-02 16:09:00,49.0,20.4,30.05,NW,315,0.0,11.0,32,0.00,,,-99.99,Weather View 32 v60,2013-04-02 20:09:00,
2013-04-02 16:14:00,50.0,19.7,30.05,WSW,247,7.0,11.0,30,0.00,,,-99.99,Weather View 32 v60,2013-04-02 20:14:00,
2013-04-02 16:19:00,49.0,21.1,30.05,SSW,202,1.0,11.0,33,0.00,,,-99.99,Weather View 32 v60,2013-04-02 20:19:00,
2013-04-02 16:29:00,51.0,22.1,30.04,NW,315,1.0,11.0,32,0.00,,,-99.99,Weather View 32 v60,2013-04-02 20:29:00,
2013-04-02 16:39:00,51.0,19.0,30.04,WNW,292,0.0,11.0,28,0.00,,,-99.99,Weather View 32 v60,2013-04-02 20:39:00,
2013-04-02 16:44:00,51.0,19.0,30.04,NW,315,2.0,11.0,28,0.00,,,-99.99,Weather View 32 v60,2013-04-02 20:44:00,
2013-04-02 16:54:00,52.0,22.2,30.04,NW,315,4.0,10.0,31,0.00,,,-99.99,Weather View 32 v60,2013-04-02 20:54:00,
2013-04-02 16:59:00,51.0,20.6,30.04,WNW,292,0.0,9.0,30,0.00,,,-99.99,Weather View 32 v60,2013-04-02 20:59:00,
2013-04-02 17:04:00,51.0,20.6,30.04,West,270,0.0,9.0,30,0.00,,,-99.99,Weather View 32 v60,2013-04-02 21:04:00,
2013-04-02 17:12:00,51.0,20.6,30.04,NW,315,0.0,9.0,30,0.00,,,-99.99,Weather View 32 v60,2013-04-02 21:12:00,
2013-04-02 17:19:00,51.0,19.0,30.04,North,360,1.0,9.0,28,0.00,,,-99.99,Weather View 32 v60,2013-04-02 21:19:00,
2013-04-02 17:24:00,51.0,19.8,30.04,West,270,0.0,9.0,29,0.00,,,-99.99,Weather View 32 v60,2013-04-02 21:24:00,
2013-04-02 17:29:00,51.0,19.8,30.04,NW,315,0.0,9.0,29,0.00,,,-99.99,Weather View 32 v60,2013-04-02 21:29:00,
2013-04-02 17:39:00,49.0,17.3,30.05,NW,315,2.0,9.0,28,0.00,,,-99.99,Weather View 32 v60,2013-04-02 21:39:00,
2013-04-02 17:49:00,49.0,20.4,30.05,SW,225,3.0,9.0,32,0.00,,,-99.99,Weather View 32 v60,2013-04-02 21:49:00,
2013-04-02 17:54:00,49.0,18.1,30.06,SW,225,5.0,9.0,29,0.00,,,-99.99,Weather View 32 v60,2013-04-02 21:54:00,
2013-04-02 18:04:00,48.0,18.8,30.06,West,270,4.0,8.0,31,0.00,,,-99.99,Weather View 32 v60,2013-04-02 22:04:00,
2013-04-02 18:09:00,47.0,17.1,30.06,SW,225,6.0,8.0,30,0.00,,,-99.99,Weather View 32 v60,2013-04-02 22:09:00,
2013-04-02 18:19:00,47.0,17.1,30.06,WSW,247,2.0,8.0,30,0.00,,,-99.99,Weather View 32 v60,2013-04-02 22:19:00,
2013-04-02 18:24:00,47.0,17.1,30.06,WNW,292,0.0,8.0,30,0.00,,,-99.99,Weather View 32 v60,2013-04-02 22:24:00,
2013-04-02 18:34:00,46.0,17.0,30.07,WSW,247,4.0,8.0,31,0.00,,,-99.99,Weather View 32 v60,2013-04-02 22:34:00,
2013-04-02 18:39:00,46.0,17.7,30.07,NW,315,0.0,8.0,32,0.00,,,-99.99,Weather View 32 v60,2013-04-02 22:39:00,
2013-04-02 18:49:00,46.0,17.0,30.08,NW,315,0.0,8.0,31,0.00,,,-99.99,Weather View 32 v60,2013-04-02 22:49:00,
2013-04-02 18:59:00,45.0,17.6,30.07,NE,45,0.0,8.0,33,0.00,,,-99.99,Weather View 32 v60,2013-04-02 22:59:00,
2013-04-02 19:09:00,45.0,18.3,30.08,WNW,292,0.0,8.0,34,0.00,,,-99.99,Weather View 32 v60,2013-04-02 23:09:00,
2013-04-02 19:14:00,45.0,17.6,30.08,ENE,67,0.0,8.0,33,0.00,,,-99.99,Weather View 32 v60,2013-04-02 23:14:00,
2013-04-02 19:19:00,44.0,18.1,30.08,West,270,0.0,5.0,35,0.00,,,-99.99,Weather View 32 v60,2013-04-02 23:19:00,
2013-04-02 19:29:00,43.0,16.5,30.08,SW,225,3.0,5.0,34,0.00,,,-99.99,Weather View 32 v60,2013-04-02 23:29:00,
2013-04-02 19:39:00,42.0,16.9,30.09,WNW,292,0.0,5.0,36,0.00,,,-99.99,Weather View 32 v60,2013-04-02 23:39:00,
2013-04-02 19:44:00,42.0,16.9,30.09,SW,225,0.0,5.0,36,0.00,,,-99.99,Weather View 32 v60,2013-04-02 23:44:00,
2013-04-02 19:49:00,41.0,16.7,30.09,West,270,0.0,5.0,37,0.00,,,-99.99,Weather View 32 v60,2013-04-02 23:49:00,
2013-04-02 19:54:00,41.0,16.7,30.10,ENE,67,0.0,5.0,37,0.00,,,-99.99,Weather View 32 v60,2013-04-02 23:54:00,
2013-04-02 20:04:00,39.0,16.1,30.10,NNW,337,0.0,3.0,39,0.00,,,-99.99,Weather View 32 v60,2013-04-03 00:04:00,
2013-04-02 20:09:00,38.0,16.4,30.10,NNW,337,0.0,3.0,41,0.00,,,-99.99,Weather View 32 v60,2013-04-03 00:09:00,
2013-04-02 20:19:00,38.0,16.4,30.10,NW,315,0.0,3.0,41,0.00,,,-99.99,Weather View 32 v60,2013-04-03 00:19:00,
2013-04-02 20:24:00,37.0,15.5,30.12,NW,315,0.0,3.0,41,0.00,,,-99.99,Weather View 32 v60,2013-04-03 00:24:00,
2013-04-02 20:34:00,36.0,15.1,30.12,North,360,0.0,0.0,42,0.00,,,-99.99,Weather View 32 v60,2013-04-03 00:34:00,
2013-04-02 20:39:00,36.0,15.1,30.12,North,360,0.0,0.0,42,0.00,,,-99.99,Weather View 32 v60,2013-04-03 00:39:00,
2013-04-02 20:49:00,35.0,15.3,30.12,North,360,0.0,0.0,44,0.00,,,-99.99,Weather View 32 v60,2013-04-03 00:49:00,
2013-04-02 20:59:00,35.0,15.8,30.12,North,360,0.0,0.0,45,0.00,,,-99.99,Weather View 32 v60,2013-04-03 00:59:00,
2013-04-02 21:04:00,35.0,15.3,30.13,North,360,0.0,0.0,44,0.00,,,-99.99,Weather View 32 v60,2013-04-03 01:04:00,
2013-04-02 21:14:00,34.0,15.4,30.13,North,360,0.0,0.0,46,0.00,,,-99.99,Weather View 32 v60,2013-04-03 01:14:00,
2013-04-02 21:24:00,34.0,15.4,30.14,North,360,0.0,0.0,46,0.00,,,-99.99,Weather View 32 v60,2013-04-03 01:24:00,
2013-04-02 21:29:00,34.0,15.4,30.14,North,360,0.0,0.0,46,0.00,,,-99.99,Weather View 32 v60,2013-04-03 01:29:00,
2013-04-02 21:34:00,34.0,15.9,30.14,North,360,0.0,0.0,47,0.00,,,-99.99,Weather View 32 v60,2013-04-03 01:34:00,
2013-04-02 21:39:00,34.0,15.9,30.14,North,360,0.0,0.0,47,0.00,,,-99.99,Weather View 32 v60,2013-04-03 01:39:00,
2013-04-02 21:49:00,34.0,16.4,30.14,North,360,0.0,0.0,48,0.00,,,-99.99,Weather View 32 v60,2013-04-03 01:49:00,
2013-04-02 21:59:00,34.0,16.4,30.15,North,360,0.0,0.0,48,0.00,,,-99.99,Weather View 32 v60,2013-04-03 01:59:00,
2013-04-02 22:09:00,33.0,15.9,30.16,North,360,0.0,0.0,49,0.00,,,-99.99,Weather View 32 v60,2013-04-03 02:09:00,
2013-04-02 22:15:00,33.0,16.4,30.16,West,270,0.0,0.0,50,0.00,,,-99.99,Weather View 32 v60,2013-04-03 02:15:00,
2013-04-02 22:29:00,34.0,17.8,30.16,North,360,0.0,0.0,51,0.00,,,-99.99,Weather View 32 v60,2013-04-03 02:29:00,
2013-04-02 22:34:00,34.0,17.3,30.16,NNW,337,0.0,3.0,50,0.00,,,-99.99,Weather View 32 v60,2013-04-03 02:34:00,
2013-04-02 22:44:00,35.0,17.8,30.16,North,360,4.0,4.0,49,0.00,,,-99.99,Weather View 32 v60,2013-04-03 02:44:00,
2013-04-02 22:49:00,35.0,17.3,30.16,NNW,337,2.0,5.0,48,0.00,,,-99.99,Weather View 32 v60,2013-04-03 02:49:00,
2013-04-02 22:54:00,35.0,17.3,30.16,North,360,0.0,5.0,48,0.00,,,-99.99,Weather View 32 v60,2013-04-03 02:54:00,
2013-04-02 23:04:00,35.0,17.3,30.17,NNE,22,4.0,5.0,48,0.00,,,-99.99,Weather View 32 v60,2013-04-03 03:04:00,
2013-04-02 23:14:00,34.0,16.8,30.16,North,360,0.0,5.0,49,0.00,,,-99.99,Weather View 32 v60,2013-04-03 03:14:00,
2013-04-02 23:19:00,34.0,16.8,30.16,North,360,2.0,5.0,49,0.00,,,-99.99,Weather View 32 v60,2013-04-03 03:19:00,
2013-04-02 23:29:00,34.0,16.8,30.16,North,360,2.0,6.0,49,0.00,,,-99.99,Weather View 32 v60,2013-04-03 03:29:00,
2013-04-02 23:34:00,34.0,16.8,30.16,North,360,3.0,6.0,49,0.00,,,-99.99,Weather View 32 v60,2013-04-03 03:34:00,
2013-04-02 23:44:00,34.0,17.3,30.16,North,360,4.0,6.0,50,0.00,,,-99.99,Weather View 32 v60,2013-04-03 03:44:00,
2013-04-02 23:49:00,34.0,17.3,30.16,NNW,337,5.0,6.0,50,0.00,,,-99.99,Weather View 32 v60,2013-04-03 03:49:00,
2013-04-02 23:59:00,34.0,17.3,30.16,North,360,2.0,8.0,50,0.00,,,-99.99,Weather View 32 v60,2013-04-03 03:59:00,